Weather History for Cando, ND

Change the Weather History Date:

Thursday, November 29, 2012

  Actual Average (KDVL) Record (KDVL)
Temperature  
Mean Temperature 10 °F -  
Max Temperature 14 °F 28 °F 47 °F (1951)
Min Temperature 5 °F 10 °F -25 °F (1985)
Degree Days  
Heating Degree Days 56    
Moisture  
Dew Point 6 °F    
Average Humidity 82    
Maximum Humidity 92    
Minimum Humidity 73    
Precipitation  
Precipitation 0.00 in - - ()
Sea Level Pressure  
Sea Level Pressure 30.16 in    
Wind  
Wind Speed 13 mph (ENE)    
Max Wind Speed 17 mph    
Max Gust Speed 22 mph    
Visibility 10 miles    
Events      
Averages and records for this station are not official NWS values.
T = Trace of Precipitation, MM = Missing Value Source: NWS Daily Summary

Daily Weather History Graph

Daily Weather History Graph

Search for Another Location

Airport:

Trip Planner

Search our weather history database for the weather conditions in past years. The results will help you decide how hot, cold, wet, or windy it might be!

Date:

Astronomy

Nov. 29, 2012 Rise Set
Actual Time 8:05 AM CST 4:44 PM CST
Civil Twilight 7:29 AM CST 5:20 PM CST
Nautical Twilight 6:50 AM CST 6:00 PM CST
Astronomical Twilight 6:12 AM CST 6:37 PM CST
Moon 5:48 PM CST (11/29) 8:54 AM CST (11/29)
Length of Visible Light 9h 50m
Length of Day
8h 39m
Full, 99% of the Moon is Illuminated
Nov 29
Full
Dec 6
Last Quarter
Dec 13
New
Dec 19
First Quarter
Dec 28
Full

Hourly Weather History & Observations

Time (CST) Temp. Windchill Dew Point Humidity Pressure Visibility Wind Dir Wind Speed Gust Speed Precip Events Conditions
12:15 AM 10.4 °F -4.8 °F 6.8 °F 85% 30.17 in 10.0 mi NE 12.7 mph 17.3 mph N/A   Overcast
12:35 AM 10.4 °F -4.8 °F 6.8 °F 85% 30.17 in 10.0 mi ENE 12.7 mph - N/A   Overcast
12:55 AM 10.4 °F -5.4 °F 6.8 °F 85% 30.16 in 10.0 mi ENE 13.8 mph - N/A   Overcast
1:15 AM 10.4 °F -4.8 °F 6.8 °F 85% 30.18 in 10.0 mi NE 12.7 mph - N/A   Overcast
1:35 AM 10.4 °F -4.8 °F 6.8 °F 85% 30.15 in 10.0 mi ENE 12.7 mph - N/A   Overcast
1:55 AM 10.4 °F -6.0 °F 6.8 °F 85% 30.16 in 10.0 mi ENE 15.0 mph - N/A   Overcast
2:15 AM 10.4 °F -4.1 °F 6.8 °F 85% 30.15 in 10.0 mi ENE 11.5 mph 19.6 mph N/A   Overcast
2:35 AM 10.4 °F -3.3 °F 5.0 °F 79% 30.17 in 10.0 mi ENE 10.4 mph - N/A   Overcast
2:55 AM 10.4 °F -4.1 °F 5.0 °F 79% 30.17 in 10.0 mi ENE 11.5 mph 16.1 mph N/A   Overcast
3:15 AM 10.4 °F -4.1 °F 5.0 °F 79% 30.17 in 10.0 mi ENE 11.5 mph - N/A   Overcast
3:35 AM 10.4 °F -4.1 °F 5.0 °F 79% 30.18 in 10.0 mi ENE 11.5 mph - N/A   Overcast
3:55 AM 8.6 °F -6.3 °F 5.0 °F 85% 30.17 in 10.0 mi ENE 11.5 mph - N/A   Overcast
4:15 AM 8.6 °F -4.7 °F 5.0 °F 85% 30.18 in 10.0 mi ENE 9.2 mph - N/A   Overcast
4:35 AM 8.6 °F -5.5 °F 5.0 °F 85% 30.17 in 10.0 mi NE 10.4 mph - N/A   Overcast
4:55 AM 8.6 °F -5.5 °F 1.4 °F 73% 30.18 in 10.0 mi ENE 10.4 mph - N/A   Overcast
5:15 AM 8.6 °F -5.5 °F 1.4 °F 73% 30.17 in 10.0 mi ENE 10.4 mph - N/A   Overcast
5:35 AM 8.6 °F -7.7 °F 1.4 °F 73% 30.16 in 10.0 mi ENE 13.8 mph - N/A   Mostly Cloudy
5:55 AM 6.8 °F -8.6 °F 1.4 °F 79% 30.16 in 10.0 mi NE 11.5 mph - N/A   Partly Cloudy
6:15 AM 6.8 °F -8.6 °F 1.4 °F 79% 30.16 in 10.0 mi NE 11.5 mph - N/A   Partly Cloudy
6:35 AM 6.8 °F -8.6 °F 1.4 °F 79% 30.16 in 10.0 mi NE 11.5 mph - N/A   Clear
6:55 AM 6.8 °F -8.6 °F 1.4 °F 79% 30.18 in 10.0 mi NE 11.5 mph - N/A   Scattered Clouds
7:15 AM 6.8 °F -6.9 °F 1.4 °F 79% 30.18 in 10.0 mi ENE 9.2 mph - N/A   Overcast
7:35 AM 6.8 °F -5.9 °F 1.4 °F 79% 30.19 in 10.0 mi ENE 8.1 mph - N/A   Overcast
7:55 AM 5.0 °F -10.0 °F 1.4 °F 85% 30.18 in 10.0 mi ENE 10.4 mph - N/A   Overcast
8:15 AM 6.8 °F -7.8 °F 1.4 °F 79% 30.18 in 10.0 mi ENE 10.4 mph - N/A   Overcast
8:35 AM 6.8 °F -7.8 °F 1.4 °F 79% 30.18 in 10.0 mi ENE 10.4 mph - N/A   Overcast
8:55 AM 6.8 °F -10.0 °F 1.4 °F 79% 30.18 in 10.0 mi ENE 13.8 mph - N/A   Mostly Cloudy
9:15 AM 6.8 °F -9.3 °F 1.4 °F 79% 30.18 in 10.0 mi ENE 12.7 mph 18.4 mph N/A   Partly Cloudy
9:35 AM 6.8 °F -10.0 °F 1.4 °F 79% 30.19 in 10.0 mi ENE 13.8 mph - N/A   Mostly Cloudy
9:55 AM 8.6 °F -7.7 °F 1.4 °F 73% 30.19 in 10.0 mi ENE 13.8 mph - N/A   Overcast
10:15 AM 8.6 °F -8.3 °F 1.4 °F 73% 30.19 in 10.0 mi East 15.0 mph - N/A   Mostly Cloudy
10:35 AM 8.6 °F -8.3 °F 1.4 °F 73% 30.19 in 10.0 mi ENE 15.0 mph 18.4 mph N/A   Partly Cloudy
10:55 AM 8.6 °F -7.0 °F 3.2 °F 79% 30.19 in 10.0 mi East 12.7 mph - N/A   Clear
11:15 AM 8.6 °F -7.7 °F 3.2 °F 79% 30.20 in 10.0 mi East 13.8 mph - N/A   Clear
11:35 AM 8.6 °F -8.3 °F 5.0 °F 85% 30.19 in 10.0 mi East 15.0 mph - N/A   Clear
11:55 AM 8.6 °F -8.3 °F 5.0 °F 85% 30.18 in 10.0 mi ENE 15.0 mph - N/A   Clear
12:15 PM 10.4 °F -4.8 °F 5.0 °F 79% 30.18 in 10.0 mi ENE 12.7 mph - N/A   Clear
12:35 PM 10.4 °F -4.8 °F 5.0 °F 79% 30.19 in 10.0 mi East 12.7 mph - N/A   Clear
12:55 PM 10.4 °F -4.8 °F 5.0 °F 79% 30.18 in 10.0 mi East 12.7 mph - N/A   Partly Cloudy
1:15 PM 10.4 °F -4.1 °F 5.0 °F 79% 30.18 in 10.0 mi East 11.5 mph - N/A   Partly Cloudy
1:35 PM 10.4 °F -4.8 °F 6.8 °F 85% 30.16 in 10.0 mi East 12.7 mph 16.1 mph N/A   Partly Cloudy
1:55 PM 10.4 °F -4.8 °F 6.8 °F 85% 30.16 in 10.0 mi East 12.7 mph - N/A   Partly Cloudy
2:15 PM 10.4 °F -3.3 °F 6.8 °F 85% 30.15 in 10.0 mi ENE 10.4 mph 17.3 mph N/A   Clear
2:35 PM 10.4 °F -6.0 °F 6.8 °F 85% 30.15 in 10.0 mi East 15.0 mph - N/A   Mostly Cloudy
2:55 PM 10.4 °F -5.4 °F 6.8 °F 85% 30.13 in 10.0 mi ENE 13.8 mph - N/A   Overcast
3:15 PM 10.4 °F -6.0 °F 6.8 °F 85% 30.13 in 10.0 mi East 15.0 mph 18.4 mph N/A   Overcast
3:35 PM 10.4 °F -5.4 °F 6.8 °F 85% 30.14 in 10.0 mi East 13.8 mph 20.7 mph N/A   Overcast
3:55 PM 10.4 °F -6.0 °F 6.8 °F 85% 30.13 in 10.0 mi East 15.0 mph - N/A   Overcast
4:15 PM 10.4 °F -6.0 °F 6.8 °F 85% 30.15 in 10.0 mi ENE 15.0 mph - N/A   Overcast
4:35 PM 10.4 °F -6.0 °F 6.8 °F 85% 30.15 in 10.0 mi East 15.0 mph - N/A   Overcast
4:55 PM 10.4 °F -6.0 °F 6.8 °F 85% 30.13 in 10.0 mi East 15.0 mph - N/A   Overcast
5:15 PM 10.4 °F -7.2 °F 6.8 °F 85% 30.12 in 10.0 mi East 17.3 mph - N/A   Overcast
5:35 PM 10.4 °F -7.2 °F 6.8 °F 85% 30.12 in 10.0 mi East 17.3 mph 21.9 mph N/A   Overcast
5:55 PM 10.4 °F -4.8 °F 6.8 °F 85% 30.13 in 10.0 mi East 12.7 mph - N/A   Overcast
6:15 PM 10.4 °F -6.6 °F 6.8 °F 85% 30.13 in 10.0 mi East 16.1 mph 19.6 mph N/A   Overcast
6:35 PM 10.4 °F -6.6 °F 8.6 °F 92% 30.14 in 10.0 mi East 16.1 mph 20.7 mph N/A   Overcast
6:55 PM 12.2 °F -3.7 °F 8.6 °F 85% 30.15 in 10.0 mi East 15.0 mph - N/A   Overcast
7:15 PM 12.2 °F -4.3 °F 8.6 °F 85% 30.14 in 10.0 mi East 16.1 mph - N/A   Overcast
7:35 PM 12.2 °F -3.1 °F 8.6 °F 85% 30.15 in 10.0 mi East 13.8 mph 19.6 mph N/A   Overcast
7:55 PM 12.2 °F -3.1 °F 8.6 °F 85% 30.15 in 10.0 mi East 13.8 mph - N/A   Overcast
8:15 PM 14.0 °F -0.8 °F 8.6 °F 79% 30.15 in 10.0 mi East 13.8 mph - N/A   Overcast
8:35 PM 14.0 °F -0.8 °F 8.6 °F 79% 30.15 in 10.0 mi East 13.8 mph - N/A   Overcast
8:55 PM 14.0 °F 2.0 °F 8.6 °F 79% 30.17 in 10.0 mi ENE 9.2 mph - N/A   Overcast
9:15 PM 14.0 °F -1.4 °F 8.6 °F 79% 30.15 in 10.0 mi East 15.0 mph - N/A   Overcast
9:35 PM 14.0 °F -0.2 °F 8.6 °F 79% 30.16 in 10.0 mi East 12.7 mph - N/A   Overcast
9:55 PM 14.0 °F -0.2 °F 8.6 °F 79% 30.16 in 10.0 mi East 12.7 mph - N/A   Overcast
10:15 PM 14.0 °F -2.0 °F 10.4 °F 86% 30.13 in 10.0 mi ESE 16.1 mph - N/A   Overcast
10:35 PM 14.0 °F -1.4 °F 8.6 °F 79% 30.13 in 10.0 mi ESE 15.0 mph - N/A   Overcast
10:55 PM 14.0 °F 1.2 °F 8.6 °F 79% 30.15 in 10.0 mi East 10.4 mph - N/A   Overcast
11:15 PM 14.0 °F 1.2 °F 8.6 °F 79% 30.15 in 10.0 mi East 10.4 mph - N/A   Overcast
11:35 PM 14.0 °F 0.5 °F 8.6 °F 79% 30.13 in 10.0 mi East 11.5 mph - N/A   Overcast
11:55 PM 14.0 °F -0.8 °F 10.4 °F 86% 30.13 in 10.0 mi ESE 13.8 mph - N/A   Overcast